Location: Newark
(45.0333°N, 18.2865°E)
Time: 04:35:20
(UTC+00:00)

X-37B - Pass Details

Date: 01 October 2021
Orbit: 385 x 389 km, 45.0° (Epoch: 17 October)

Event Time Altitude Azimuth Distance (km) Brightness Sun altitude
Exits shadow 04:16:04 - 272° (W) 1,582 3.0 -5.9°
Reaches altitude 10° 04:16:31 10° 269° (W) 1,413 2.7 -5.8°
Maximum altitude 04:19:22 30° 206° (SSW) 715 1.7 -5.3°
Drops below altitude 10° 04:22:13 10° 142° (SE) 1,409 4.0 -4.8°
Sets 04:24:24 0° 131° (SE) 2,262 5.3 -4.5°
